This is the latest recevied weather packets stored in our database for station/object S53BL-10. If no packets are shown the sender has not sent any weather packets the latest 10 day(s).
| Time | Temp. | Humidity | Pressure | Rain* | Wind** | Luminosity | Snow |
|---|---|---|---|---|---|---|---|
| 1777263756 | 8.89° C | 61% | 1019.4 hPa | - | - | - | - |
| 1777262855 | 8.89° C | 60% | 1019.4 hPa | - | - | - | - |
| 1777261955 | 8.89° C | 62% | 1019.2 hPa | - | - | - | - |
| 1777261054 | 9.44° C | 59% | 1019.5 hPa | - | - | - | - |
| 1777260153 | 9.44° C | 57% | 1019.4 hPa | - | - | - | - |
| 1777259252 | 10° C | 55% | 1019.3 hPa | - | - | - | - |
| 1777258352 | 10° C | 55% | 1019.5 hPa | - | - | - | - |
| 1777257451 | 10° C | 56% | 1019.6 hPa | - | - | - | - |
| 1777256549 | 10.56° C | 55% | 1019.7 hPa | - | - | - | - |
| 1777255648 | 10.56° C | 54% | 1019.7 hPa | - | - | - | - |
| 1777254747 | 10.56° C | 53% | 1019.7 hPa | - | - | - | - |
| 1777253847 | 10.56° C | 51% | 1019.7 hPa | - | - | - | - |
| 1777252946 | 11.11° C | 51% | 1019.8 hPa | - | - | - | - |
| 1777252045 | 11.11° C | 51% | 1019.8 hPa | - | - | - | - |
| 1777251144 | 11.67° C | 49% | 1019.9 hPa | - | - | - | - |
| 1777250243 | 11.67° C | 50% | 1019.9 hPa | - | - | - | - |
| 1777249343 | 11.67° C | 48% | 1019.9 hPa | - | - | - | - |
| 1777248442 | 12.22° C | 45% | 1020 hPa | - | - | - | - |
| 1777247541 | 12.78° C | 45% | 1020.1 hPa | - | - | - | - |
| 1777246640 | 12.78° C | 44% | 1020 hPa | - | - | - | - |
| 1777245740 | 13.33° C | 43% | 1020.1 hPa | - | - | - | - |
| 1777244839 | 13.33° C | 43% | 1020 hPa | - | - | - | - |
| 1777243938 | 13.33° C | 42% | 1019.9 hPa | - | - | - | - |
| 1777243037 | 13.89° C | 42% | 1019.8 hPa | - | - | - | - |
| 1777242136 | 13.89° C | 42% | 1019.7 hPa | - | - | - | - |
* Rain since midnight (hover to see other rain measurements)
** Current wind speed in m/s (hover to see current wind gust speed)